Location: Glenbow
(51.1592°N, 114.3828°W)
Time: 21:23:33
(UTC+00:00)

Envisat - Pass Details

Date: 04 December 2021
Orbit: 764 x 766 km, 98.2° (Epoch: 26 January)

Event Time Altitude Azimuth Distance (km) Brightness Sun altitude
Rises 00:07:48 0° 182° (S) 3,221 6.7 -5.5°
Reaches altitude 10° 00:10:11 10° 188° (S) 2,299 6.0 -5.9°
Maximum altitude 00:15:03 46° 261° (W) 1,021 4.3 -6.5°
Drops below altitude 10° 00:19:58 10° 335° (NNW) 2,317 5.5 -7.2°
Sets 00:22:23 0° 342° (NNW) 3,248 6.2 -7.6°
